Location: Lafig�re
(44.4503°N, 4.0357°E)
Time: 14:19:49
(UTC+00:00)

Vanguard 2 Rocket - Pass Details

Date: 31 January 2021
Orbit: 554 x 3325 km, 32.9° (Epoch: 06 March)

Event Time Altitude Azimuth Distance (km) Brightness Sun altitude
Rises 17:32:20 0° 272° (W) 6,160 12.8 -7.6°
Reaches altitude 10° 17:37:45 10° 263° (W) 4,647 12.1 -8.5°
Maximum altitude 17:46:56 27° 213° (SSW) 2,586 9.8 -10.1°
Drops below altitude 10° 17:52:58 10° 159° (SSE) 2,954 9.4 -11.2°
Sets 17:55:35 0° 146° (SE) 3,609 9.8 -11.6°
